Regional Weather Roundup
Issued by NWS

Home | Current Version | Previous Version | Graphics & Text | Print | Product List | Glossary On
Versions: 1 2 3 4 5 6 7 8 9 10 11 12 13 14 15 16 17 18 19 20 21 22 23 24 25 26 27 28 29 30 31 32 33 34 35 36 37 38 39 40 41 42 43 44 45 46 47 48 49 50
000
ASUS43 KIND 271559
RWRIN

WEATHER ROUNDUP FOR INDIANA
NATIONAL WEATHER SERVICE INDIANAPOLIS IN
1100 AM EST FRI FEB 27 2015

NOTE: "FAIR" INDICATES FEW OR NO CLOUDS BELOW 12,000 FEET WITH NO
SIGNIFICANT WEATHER AND/OR OBSTRUCTIONS TO VISIBILITY.

* - STATION DOES NOT REPORT WEATHER SUCH AS PRECIPITATION OR FOG.

+ - STATION NOT QUALITY CONTROLLED BY THE NATIONAL WEATHER SERVICE.
    USE DATA WITH CAUTION...ESPECIALLY DEWPOINT AND RELATIVE
    HUMIDITY OBSERVATIONS.

INZ001>003-010>013-019-020-271700-
NORTHWEST INDIANA

CITY           SKY/WX    TMP DP  RH WIND       PRES   REMARKS
GARY /AIRPORT/ SUNNY     12  -8  40 W14       30.60R WCI  -3
VALPARAISO     NOT AVBL

$$

LMZ046-743>745-271700-
SOUTHERN LAKE MICHIGAN

STATION/POSITION TIME  TEMP WIND        PRES
                       AIR  DIR/SP/G
                 (UTC) (F)  (DEG/KT/KT) (MB)
MICHIGAN CITY    1500    8  210/ 11/ 12   N/A

$$

INZ004-005-014>016-021>024-271700-
NORTH CENTRAL INDIANA

CITY           SKY/WX    TMP DP  RH WIND       PRES   REMARKS
ELKHART        SUNNY     12  -6  44 SW3       30.57R
GOSHEN         SUNNY      9  -2  61 CALM      30.56R
SOUTH BEND     PTSUNNY   14  -1  51 W7        30.57R WCI   4

$$

INZ006>009-017-018-025>027-271700-
NORTHEAST INDIANA

CITY           SKY/WX    TMP DP  RH WIND       PRES   REMARKS
ANGOLA *+      SUNNY      9  -8  47 CALM      30.53R
FORT WAYNE     MOSUNNY   12  -2  53 NW6       30.56R WCI   3

$$

INZ028-029-035-036-043>045-051>053-271700-
WEST CENTRAL INDIANA

CITY           SKY/WX    TMP DP  RH WIND       PRES   REMARKS
CRAWFORDSVL +  SUNNY      8  -8  48 NW8       30.61R WCI  -4
GREENCASTLE +  SUNNY     12  -6  44 N7        30.61R WCI   2
LAFAYETTE      SUNNY      9  -2  61 W5        30.62R WCI   1
TERRE HAUTE    PTSUNNY   12  -2  53 N7        30.65R WCI   1

$$

INZ030>032-037>040-046>048-054>057-064-065-271700-
CENTRAL INDIANA

CITY           SKY/WX    TMP DP  RH WIND       PRES   REMARKS
ANDERSON       SUNNY     12   1  62 N6        30.57R WCI   3
GREENWOOD *+   SUNNY     12   0  57 W3        30.59R
INDIANAPOLIS   MOSUNNY   13   0  56 W9        30.59R WCI   1
-EAGLE CREEK   SUNNY     12   0  58 NW7       30.59R WCI   1
KOKOMO *+      SUNNY      9   0  66 W9        30.58R WCI  -5
MT COMFORT *+  SUNNY     14  -4  44 CALM      30.58R
SHELBYVILLE    SUNNY     11   4  73 SW3       30.59R

$$

INZ033-034-041-042-049-050-058-059-271700-
EAST CENTRAL INDIANA

CITY           SKY/WX    TMP DP  RH WIND       PRES   REMARKS
MUNCIE         SUNNY     11   3  70 N5        30.56R WCI   3

$$

INZ060-061-067>069-081>083-085>088-271700-
SOUTHWEST INDIANA

CITY           SKY/WX    TMP DP  RH WIND       PRES   REMARKS
EVANSVILLE     SUNNY     19   8  62 N9        30.67R WCI   8
HUNTINGBURG *+ SUNNY     16   7  67 N6        30.65R WCI   7

$$

INZ062-063-066-070>080-084-089>092-271700-
SOUTH CENTRAL AND SOUTHEAST INDIANA

CITY           SKY/WX    TMP DP  RH WIND       PRES   REMARKS
BLOOMINGTON    SUNNY     15   0  51 NE6       30.60R WCI   6
SEYMOUR +      SUNNY     18   5  57 W3        30.63R

$$



USA.gov is the U.S. government's official web portal to all federal, state and local government web resources and services.